Regional Weather Roundup
Issued by NWS

Home | Current Version | Previous Version | Text Only | Print | Product List | Glossary Off
Versions: 1 2 3 4 5 6 7 8 9 10 11 12 13 14 15 16 17 18 19 20 21 22 23 24 25 26 27 28 29 30 31 32 33 34 35 36 37 38 39 40 41 42 43 44 45 46 47 48 49 50

000
ASUS45 KBOU 260307
RWRCO

WEATHER ROUNDUP FOR COLORADO
NATIONAL WEATHER SERVICE DENVER/BOULDER CO
900 PM MDT WED MAY 25 2016

NOTE: "FAIR" INDICATES FEW OR NO CLOUDS BELOW 12000 FEET WITH NO
SIGNIFICANT WEATHER AND/OR OBSTRUCTIONS TO VISIBILITY.

COZ001>005-013-030-031-260400-
...NORTHWEST COLORADO...

CITY           SKY/WX    TMP DP  RH WIND       PRES   REMARKS
CRAIG          FAIR      50  32  50 VRB3      30.03R
HAYDEN         FAIR      52  28  40 S5        30.04R
MEEKER         FAIR      55  20  25 CALM      30.03R
MOUNT WERNER   NOT AVBL
STEAMBOAT SPGS FAIR      54  25  33 N3        30.05S
WALDEN         FAIR      45  21  39 W7        30.13R
$$

COZ006>008-011-260400-
...WEST CENTRAL VALLEYS...

CITY           SKY/WX    TMP DP  RH WIND       PRES   REMARKS
GRAND JUNCTION FAIR      62  16  16 NW7       29.93S
MONTROSE       FAIR      62  12  14 CALM      30.00R
EAGLE          FAIR      55  21  26 E3        30.06R
RIFLE          FAIR      59  21  23 W9        29.97S
DELTA          FAIR      66  15  13 NW5       29.95F
NUCLA          FAIR      64  10  12 N3        30.01F
$$

COZ017>023-064>068-260400-
...SOUTHWEST COLORADO...

CITY           SKY/WX    TMP DP  RH WIND       PRES   REMARKS
DURANGO        FAIR      56  19  23 VRB3      30.03S
CORTEZ         FAIR      62  21  20 SW7       29.99S
PAGOSA SPRINGS CLOUDY    59  12  15 SE9G18    30.10S
TELLURIDE      CLOUDY    53   9  17 CALM      30.18S
WOLF CREEK PAS CLOUDY    34  14  44 SW9       30.34F WCI  26
$$

COZ009-010-012-014-032>034-037-058>063-260400-
...CENTRAL COLORADO...

CITY           SKY/WX    TMP DP  RH WIND       PRES   REMARKS
ASPEN          FAIR      49  19  30 S8        30.09R
BUENA VISTA    FAIR      48  10  22 W12       30.11R
COPPER MTN     NOT AVBL
BERTHOUD PASS  FAIR      32  23  69 NW7       30.33S WCI  26
COTTONWOOD PAS FAIR      50  -4  10 SW12      30.21R
GUNNISON       FAIR      57  10  15 N3        30.12S
KREMMLING      FAIR      50  18  27 CALM      30.09R
LEADVILLE      FAIR      39   5  24 NE5       30.20R
MONARCH PASS   FAIR      34  10  37 W17       30.41S WCI  23
SALIDA         FAIR      57  10  15 SW8       30.15S
SUNLIGHT       FAIR      41  19  42 W3        30.27S
WILKERSON PASS CLOUDY    41   0  17 NW8       30.30R
$$

COZ069>075-260400-
...SAN LUIS VALLEY/SANGRE DE CRISTO MOUNTAINS...

CITY           SKY/WX    TMP DP  RH WIND       PRES   REMARKS
ALAMOSA        FAIR      50  20  30 W6        30.09R
LA VETA PASS   FAIR      45   5  19 S7        30.24R
SAGUACHE       FAIR      46  16  29 N7        30.11S
$$

COZ035-036-038>040-260400-
...NORTHERN COLORADO FRONT RANGE...

CITY           SKY/WX    TMP DP  RH WIND       PRES   REMARKS
DENVER INTL AP MOCLDY    56  43  61 NE12      29.95R
DMNS CITY PARK   N/A     62  43  50 N13G18    29.96R
AURORA         MOCLDY    57  44  62 NE13      29.96R
FRONT RANGE AP MOCLDY    54  43  66 NE12      29.96
ERIE MUNI ARPT FAIR      60  45  57 CALM      29.94S
BOULDER MUN AP FAIR      63  43  48 W6        29.96R
CENTENNIAL     MOCLDY    61  38  42 CALM      29.96R
BROOMFIELD     NOT AVBL
FORT COLLINS   FAIR      37 N/A N/A SE9       29.95R
LONGMONT       FAIR      59  47  64 CALM      29.96R
$$

COZ041-046-047-076>085-087-088-260400-
...PIKES PEAK/PALMER DIVIDE AND SOUTHERN FOOTHILLS...

CITY           SKY/WX    TMP DP  RH WIND       PRES   REMARKS
COLO. SPRINGS  FAIR      62  15  16 N5        29.98R
A. F. ACADEMY  FAIR      61  16  17 NW6       29.99R
SCHRIEVER AFB  NOT AVBL
ELLICOTT       FAIR     N/A N/A N/A S13       29.97R
FALCON         FAIR      57  22  25 N5        30.03R
FORT CARSON    FAIR      63  14  14 W12       29.94R
LIMON          FAIR      59  41  51 E12       29.95S
MONUMENT HILL  MOCLDY    54  34  47 SW7       30.05R
TRINIDAD       FAIR      67  11  11 N5        29.95R
$$

COZ042>045-048>051-090-091-260400-
...NORTHEAST COLORADO...

CITY           SKY/WX    TMP DP  RH WIND       PRES   REMARKS
GREELEY ARPT   FAIR      59  43  55 E9        29.96R
AKRON          FAIR      53  45  74 NE12      29.96R
BURLINGTON     FAIR      56  43  61 NE17G24   29.94R
WRAY           FAIR      57  46  67 NE12      29.90F
STERLING       FAIR      59  45  58 E7        29.93S
HOLYOKE        FAIR      55  50  82 N8        29.95S
FORT MORGAN    FAIR      55  41  58 NE13      29.96R
$$

COZ086-089-092>099-260400-
...SOUTHEAST COLORADO...

CITY           SKY/WX    TMP DP  RH WIND       PRES   REMARKS
PUEBLO         FAIR      68  19  15 W9        29.87R
LA JUNTA       FAIR      68  25  19 NE7       29.85S
LAMAR          FAIR      64  37  36 E9        29.82S
SPRINGFIELD      N/A     56  29  35 S10       29.88S
$$



USA.gov is the U.S. government's official web portal to all federal, state and local government web resources and services.